Location: Fernhill
(41.0167°S, 175.6333°E)
Time: 17:07:34
(UTC+00:00)

Cosmos 1833 Rocket - Pass Details

Date: 18 February 2026
Orbit: 832 x 837 km, 71.0° (Epoch: 8 March)

Event Time Altitude Azimuth Distance (km) Brightness Sun altitude
Exits shadow 14:38:02 12° 232° (SW) 2,319 5.0 -29.9°
Maximum altitude 14:38:43 12° 225° (SW) 2,306 5.0 -29.8°
Drops below altitude 10° 14:41:01 10° 200° (SSW) 2,477 5.5 -29.6°
Sets 14:45:12 0° 171° (S) 3,421 6.7 -29.1°
